Temperature
7 8 8 7 8 8 7 7 7 7 8 9 10 9 9 9 8 8 9 9 9 8 8 8 8 8 8 8 8 8 8 7 7 6 7 7 7 7 7 7 7 7 6 5
6 8 9 8 9 9 9 9 8 8 8 10 10 9 8 8 7 7 7 8 8 8 8 7 7 7 7 7 7 7 6 6 5 5 6 6 6 6 7 7 6 5 5 4
7 9 9 9 10 9 9 9 9 8 9 10 9 8 7 7 6 6 7 7 7 7 6 6 6 6 6 5 5 4 4 4 4 4 4 4 5 6 6 5 5 4 4 3
7 7 8 11 11 10 9 10 10 10 10 9 8 7 6 5 5 5 6 6 6 5 5 5 5 5 4 3 3 2 2 2 3 3 4 4 5 5 5 4 4 3 2 2
7 7 9 11 12 11 9 9 11 10 9 9 9 7 5 4 4 4 4 4 4 4 3 3 3 2 2 1 1 1 1 2 3 3 4 4 5 4 4 3 3 2 1 1
7 8 9 12 12 11 10 10 11 9 9 8 8 8 5 3 2 2 2 2 2 2 1 1 0 0 0 0 1 2 2 3 3 3 4 4 4 3 3 2 1 1 0 -0
7 7 9 12 12 11 10 10 10 9 8 7 5 4 3 2 1 1 1 1 1 0 -0 -0 -0 1 1 2 3 3 3 3 3 3 3 3 3 2 1 1 1 0 -0 -1
8 8 9 13 12 11 10 10 9 8 7 5 3 3 2 1 1 1 0 0 0 0 0 0 1 2 3 3 3 3 3 3 3 3 2 2 1 1 0 0 -0 -1 -2 -3
10 10 12 13 12 11 9 8 8 7 6 5 3 2 2 1 1 1 1 0 0 1 1 1 1 3 4 3 3 3 3 3 2 2 1 1 0 0 -0 -1 -1 -2 -3 -3
10 11 12 12 11 9 7 6 6 6 5 5 3 2 1 1 1 1 1 1 1 2 3 2 2 3 4 3 2 2 2 2 1 1 0 -0 -0 -1 -1 -2 -2 -3 -3 -4
9 11 12 10 9 8 7 5 5 5 5 4 3 2 2 1 1 1 1 2 3 4 4 3 3 3 2 2 2 2 1 1 0 -0 -0 -1 -1 -2 -2 -2 -3 -4 -4 -5
10 11 11 10 9 8 6 5 4 4 3 3 3 2 1 1 1 1 2 3 4 4 4 3 3 2 1 1 1 1 1 -0 -0 -1 -1 -1 -2 -2 -3 -3 -4 -5 -5 -6
12 11 11 10 8 7 6 5 4 3 3 2 2 2 1 1 1 1 2 3 4 4 3 2 2 1 0 0 0 0 -0 -1 -1 -1 -2 -2 -2 -3 -4 -4 -5 -6 -7 -8
11 11 10 9 8 7 6 5 4 3 2 2 2 1 1 1 1 1 2 3 3 3 2 2 1 1 -0 -0 -0 -0 -1 -1 -1 -2 -2 -3 -3 -4 -5 -5 -6 -6 -7 -8
10 9 9 8 7 6 5 5 4 3 2 2 2 2 2 2 2 2 3 3 2 2 1 1 1 -0 -1 -1 -1 -1 -1 -2 -2 -3 -3 -4 -4 -5 -5 -6 -7 -7 -8 -8
9 8 7 7 6 6 5 4 4 3 3 3 3 3 3 3 3 3 2 2 2 1 1 0 0 -0 -1 -1 -1 -2 -2 -3 -3 -3 -4 -4 -5 -5 -6 -7 -7 -8 -9 -9
8 7 7 6 6 5 5 5 5 5 5 4 4 4 4 3 3 2 1 1 1 1 0 -0 -1 -1 -1 -1 -2 -2 -3 -3 -4 -4 -4 -5 -5 -6 -7 -8 -8 -9 -9 -10
6 7 7 8 7 6 5 4 5 5 6 6 5 4 3 3 3 2 1 1 0 -0 -1 -1 -1 -2 -2 -2 -3 -3 -3 -4 -4 -5 -5 -6 -6 -7 -8 -9 -9 -9 -10 -10
5 6 6 6 6 5 5 5 5 6 6 5 5 4 3 3 3 2 1 0 -0 -0 -1 -2 -2 -2 -3 -3 -3 -4 -4 -4 -5 -5 -6 -7 -7 -8 -9 -9 -10 -10 -10 -10
4 5 5 5 5 4 4 5 5 6 5 5 4 4 3 2 2 1 0 -0 -1 -1 -1 -2 -2 -3 -3 -4 -4 -4 -5 -5 -5 -6 -7 -7 -8 -9 -9 -10 -10 -10 -11 -11
3 4 5 5 4 4 4 5 5 5 5 5 5 4 3 2 1 1 0 -0 -1 -2 -2 -2 -3 -3 -4 -4 -4 -5 -5 -5 -6 -7 -8 -8 -9 -9 -10 -10 -11 -11 -11 -11
2 3 3 3 3 3 3 3 4 5 5 5 4 4 3 2 1 -0 -0 -0 -1 -2 -2 -3 -3 -4 -4 -4 -5 -5 -6 -6 -7 -8 -8 -9 -10 -10 -10 -11 -11 -11 -11 -11
1 2 2 2 2 2 2 2 3 4 5 5 4 3 3 2 1 1 -0 -1 -2 -2 -3 -3 -4 -4 -4 -5 -5 -6 -6 -7 -8 -8 -9 -10 -10 -10 -11 -11 -11 -11 -11 -11
1 1 1 1 1 1 1 2 2 3 4 4 3 3 2 2 1 -0 -0 -1 -2 -2 -3 -3 -4 -4 -5 -5 -6 -6 -7 -8 -8 -9 -9 -10 -10 -11 -11 -11 -11 -11 -11 -11
0 0 -0 -0 -0 0 1 1 2 2 3 3 2 2 1 1 1 -0 -1 -2 -2 -3 -3 -4 -4 -5 -5 -6 -6 -7 -8 -8 -9 -9 -10 -10 -11 -11 -11 -11 -11 -11 -11 -11
-0 -0 -1 -1 -1 -0 0 1 1 2 2 2 2 1 1 -0 -1 -1 -2 -2 -3 -3 -4 -4 -5 -5 -5 -6 -7 -7 -8 -9 -9 -10 -10 -10 -11 -11 -11 -11 -11 -11 -11 -10
-1 -1 -1 -2 -2 -1 -1 0 1 2 2 3 2 1 0 -1 -1 -2 -2 -3 -3 -4 -4 -5 -5 -5 -6 -7 -7 -8 -8 -9 -9 -10 -10 -10 -10 -11 -11 -11 -11 -10 -10 -10
Wind_Speed
10 14 12 14 16 15 17 18 17 23 29 31 26 21 14 11 12 12 10 8 5 3 2 2 4 9 12 13 14 15 15 15 15 15 15 16 16 15 14 13 13 12 11 9
7 13 14 17 18 17 16 16 17 22 25 19 15 12 9 8 9 10 9 7 4 4 5 8 10 11 12 13 12 13 15 15 16 17 16 15 15 14 14 13 12 11 9 7
5 7 10 8 5 5 7 10 12 14 14 16 15 10 7 7 8 7 6 4 3 7 9 11 12 12 12 12 13 14 15 17 17 17 16 14 15 15 14 12 11 9 7 6
5 8 4 2 7 7 9 13 12 12 13 11 8 4 7 9 8 6 3 3 8 11 12 12 12 12 13 14 14 15 16 17 17 17 16 13 13 13 12 9 9 8 7 5
3 5 7 4 2 3 5 7 5 7 10 9 4 2 7 12 10 8 9 11 12 13 14 13 13 14 16 16 15 16 17 16 15 14 14 14 14 12 9 9 8 6 5 4
3 4 4 2 1 2 2 5 4 7 9 9 6 3 5 10 11 12 13 13 13 14 15 15 14 15 17 17 16 16 15 15 14 13 13 13 12 10 8 8 7 5 4 2
5 5 7 5 3 3 3 5 8 7 7 6 4 4 5 8 11 12 13 14 14 14 14 13 14 15 16 16 16 15 14 14 13 12 12 12 10 8 8 6 5 3 2 1
5 6 7 3 4 4 4 5 6 5 5 5 7 8 9 9 10 11 12 13 13 13 13 12 13 15 17 16 14 14 14 14 12 11 10 10 9 7 6 5 4 2 2 2
6 7 6 5 2 3 5 5 5 4 6 8 7 8 9 10 9 9 10 11 11 13 15 13 11 11 17 14 13 14 14 13 11 10 9 8 7 7 5 4 4 3 3 2
5 8 8 2 5 6 6 5 5 4 6 7 8 9 9 9 9 9 9 10 11 13 15 14 11 11 13 13 12 14 14 11 9 8 8 7 6 5 4 4 4 4 4 4
6 9 5 5 5 4 5 6 7 7 7 8 9 10 9 9 9 9 10 10 10 13 15 14 12 12 11 11 12 13 11 9 8 7 7 6 5 4 5 4 4 3 2 3
5 2 3 2 4 5 6 7 7 7 8 8 8 10 10 9 8 10 11 11 12 13 15 14 13 12 10 9 10 11 9 7 6 5 5 4 4 2 2 2 2 1 3 4
6 1 3 4 5 5 7 7 8 8 9 9 9 9 10 10 9 10 11 12 13 13 14 13 12 11 9 8 9 10 9 7 5 5 5 4 4 4 3 2 2 5 6 7
0 1 2 4 5 7 9 9 9 9 9 9 9 10 10 11 11 12 11 11 12 13 13 12 12 10 8 9 10 10 8 8 7 5 5 4 4 3 3 3 3 4 6 10
2 1 2 7 8 9 9 10 10 10 10 10 9 10 11 12 12 11 10 10 11 12 12 11 12 9 8 9 9 9 7 5 5 4 4 3 3 3 2 3 3 4 4 6
3 4 5 7 8 8 9 10 11 11 11 11 11 11 11 12 12 11 9 9 11 11 10 10 10 8 8 8 9 7 6 8 6 4 3 3 3 3 3 3 4 4 4 4
3 4 6 7 8 9 8 8 10 12 12 12 13 13 13 13 12 11 10 9 10 10 9 9 8 7 8 8 7 5 5 4 4 3 3 2 3 3 3 3 4 4 4 7
7 6 7 8 10 11 10 10 11 12 12 13 14 13 12 12 13 11 11 11 12 11 8 8 8 8 8 7 6 5 4 3 2 2 2 2 3 3 3 4 4 5 4 6
7 4 5 7 9 10 10 11 12 12 13 14 14 12 11 11 12 12 10 10 11 9 6 7 11 8 7 6 6 4 4 2 2 1 2 4 4 3 3 4 4 5 5 6
5 2 2 5 8 9 10 12 13 13 13 13 14 14 13 11 11 11 10 8 6 6 8 8 8 7 6 5 5 3 3 2 2 2 2 3 3 4 4 4 5 5 5 5
5 4 4 6 7 8 10 12 13 13 12 12 14 14 13 11 10 10 10 8 6 8 9 10 6 5 5 4 3 2 2 2 2 2 3 3 4 4 4 4 5 6 6 6
5 3 5 6 8 8 8 9 10 12 13 12 13 14 14 12 10 9 7 6 7 11 7 5 5 6 5 3 2 2 2 2 3 3 3 3 4 4 4 5 5 6 6 6
4 3 4 6 8 8 8 8 10 11 12 13 14 14 13 11 9 9 8 6 6 11 7 5 7 8 5 3 2 2 2 3 3 3 4 4 4 4 5 5 5 6 6 6
4 3 4 6 7 8 8 8 8 9 10 10 10 11 12 11 7 5 7 13 13 11 7 8 9 6 4 2 1 2 2 3 3 4 4 4 4 4 5 5 6 6 6 8
4 4 4 6 6 6 7 9 11 11 11 10 10 9 7 6 6 8 8 9 13 11 6 7 7 4 2 1 1 2 3 4 4 4 4 4 5 5 6 6 6 7 7 7
1 2 2 3 4 6 7 8 8 9 10 11 8 7 7 8 10 9 8 8 10 10 6 4 3 2 1 1 2 3 3 5 5 5 5 5 6 6 6 6 8 7 7 8
1 2 3 4 5 6 6 6 8 9 10 11 11 8 8 9 9 9 9 7 6 6 4 3 2 1 0 2 3 4 4 4 5 5 5 5 6 6 6 8 7 7 7 8
Wind_Direction
259 275 274 263 262 256 248 252 263 274 280 287 294 297 291 278 273 277 284 287 280 251 190 163 106 102 107 109 113 120 126 130 128 124 121 118 118 119 117 113 109 105 104 104
265 259 259 261 260 260 260 258 260 273 283 288 296 296 294 291 290 288 289 281 251 181 142 120 110 108 106 109 116 124 127 124 120 118 116 116 117 115 110 105 104 104 107 113
280 302 297 268 240 247 261 266 269 278 287 308 316 320 318 318 312 303 295 276 160 122 114 108 108 111 109 111 113 116 118 116 115 115 114 115 117 112 109 109 109 107 107 106
290 309 285 187 172 219 259 274 270 276 297 314 324 358 18 2 339 333 348 93 101 101 99 99 103 103 104 106 109 111 112 112 114 116 118 118 113 109 109 110 110 109 109 105
277 291 277 276 190 221 266 285 305 315 320 326 327 77 30 15 21 41 63 81 88 94 99 100 102 105 107 107 107 110 112 115 119 122 121 116 110 108 108 106 104 104 102 99
250 286 282 337 86 126 247 262 24 356 341 337 349 21 14 25 45 59 68 78 87 92 97 99 101 107 109 111 112 112 115 116 116 116 114 110 107 103 99 99 103 109 114 118
233 254 273 297 325 300 288 314 348 360 3 9 53 72 73 64 70 75 79 84 90 95 99 105 110 112 113 113 114 116 115 113 110 108 105 103 100 97 99 102 107 116 134 192
202 225 255 297 335 321 302 327 347 12 56 83 97 92 87 83 84 93 99 102 105 108 110 114 119 120 116 114 116 115 112 107 103 98 99 100 99 95 94 93 83 70 55 30
211 233 282 327 342 7 18 346 355 30 105 120 113 105 101 95 89 89 95 102 105 106 104 102 103 113 112 111 112 110 105 100 96 90 88 92 96 98 89 74 68 46 37 26
277 273 286 11 58 40 37 18 21 56 117 126 121 116 110 107 103 100 96 96 101 103 102 98 95 98 106 111 111 107 102 98 96 94 89 79 74 73 77 68 55 38 27 16
261 274 278 100 68 49 61 66 62 62 86 114 123 120 117 112 110 107 101 97 102 106 105 104 103 99 99 103 105 101 98 95 91 88 93 91 83 75 73 82 87 54 15 2
248 320 12 47 75 66 85 90 95 97 93 96 109 115 113 109 105 105 105 105 105 105 105 103 100 95 91 93 99 103 100 94 90 89 84 84 81 72 111 113 88 345 308 308
264 26 83 109 91 85 98 100 101 106 109 107 104 109 111 111 108 108 109 109 110 109 106 103 97 89 82 85 89 91 95 93 86 82 78 67 54 41 18 338 285 298 305 313
8 129 225 169 135 111 106 104 101 99 98 101 106 107 110 110 108 108 110 113 113 109 105 101 94 84 77 82 86 85 82 79 80 72 64 59 52 32 18 4 342 330 334 329
261 170 109 109 111 114 121 123 119 115 113 110 111 112 113 113 111 108 107 108 106 102 99 97 92 83 78 83 85 81 76 69 70 72 59 48 38 19 1 350 332 318 319 330
87 92 123 140 148 147 151 147 138 134 130 126 119 114 111 112 111 108 105 106 109 105 101 98 91 85 82 83 84 80 73 67 58 50 53 40 19 356 348 341 328 320 322 316
172 206 199 188 176 171 169 159 147 142 137 130 125 123 122 120 114 107 98 93 97 97 98 100 96 86 78 77 84 94 98 80 46 35 46 31 357 342 338 328 316 312 309 316
251 238 201 191 182 175 167 150 143 141 137 132 130 131 132 129 123 117 111 106 99 91 86 94 95 87 77 72 75 76 84 84 56 36 16 1 341 328 317 309 310 312 313 323
281 257 205 186 172 166 157 148 144 136 135 138 138 135 128 124 124 123 120 115 114 110 108 112 113 98 88 76 76 71 73 69 32 9 354 331 331 317 315 313 312 313 318 323
359 17 129 138 141 146 145 142 139 139 143 141 134 128 126 127 129 127 118 108 113 127 129 122 110 106 101 82 72 74 65 45 0 340 335 328 322 319 318 316 316 315 317 317
8 43 91 111 116 121 131 139 144 145 142 139 139 137 134 132 128 123 119 113 109 121 126 127 113 110 106 108 80 75 55 16 349 340 333 324 319 316 315 315 319 319 316 315
11 53 92 111 117 118 123 131 140 140 137 133 132 133 134 133 127 115 109 128 135 134 122 113 112 122 124 110 77 67 37 355 336 328 322 318 315 313 312 315 313 307 303 299
21 67 103 118 125 126 121 127 136 140 139 140 143 144 142 139 138 135 131 135 136 135 123 120 131 131 121 89 67 36 359 338 327 323 319 313 306 303 301 301 296 294 294 294
29 64 94 112 122 129 132 127 121 121 122 124 129 134 136 132 118 107 127 143 143 128 118 133 135 129 113 87 52 0 334 322 314 308 304 300 296 293 290 289 289 288 287 290
50 75 100 123 132 131 125 121 117 120 121 121 117 114 113 118 126 128 125 134 137 124 116 134 135 126 97 62 3 328 313 297 289 292 288 294 293 291 286 283 282 285 287 287
57 114 129 132 126 129 138 140 141 140 137 133 124 114 110 111 115 119 116 116 122 125 119 111 116 118 75 353 322 308 299 301 309 307 292 287 283 283 283 285 286 285 285 284
130 124 113 107 124 143 152 153 152 153 152 146 137 130 125 121 119 119 117 114 113 116 120 125 130 129 322 311 304 297 291 288 285 283 283 281 280 280 282 284 284 285 285 286
Height
1453 1448 1448 1448 1446 1445 1447 1445 1439 1423 1414 1400 1394 1391 1388 1385 1384 1383 1381 1380 1380 1381 1382 1383 1384 1384 1386 1388 1393 1398 1404 1410 1414 1419 1425 1430 1436 1442 1449 1454 1459 1463 1466 1468
1449 1441 1438 1436 1433 1431 1429 1427 1424 1417 1406 1395 1390 1386 1383 1381 1380 1378 1377 1376 1377 1378 1379 1381 1382 1384 1386 1390 1395 1400 1405 1409 1414 1419 1424 1430 1436 1443 1449 1454 1458 1461 1464 1466
1446 1434 1433 1428 1421 1423 1422 1418 1416 1410 1401 1392 1387 1383 1381 1379 1377 1375 1374 1374 1374 1376 1378 1379 1382 1385 1389 1393 1398 1402 1406 1410 1414 1419 1425 1432 1439 1445 1450 1454 1457 1459 1462 1463
1446 1439 1431 1419 1414 1416 1416 1411 1406 1402 1396 1391 1387 1385 1383 1380 1377 1375 1373 1373 1374 1376 1378 1381 1384 1388 1392 1396 1400 1403 1407 1411 1416 1422 1429 1435 1441 1446 1450 1453 1456 1458 1459 1460
1445 1439 1427 1413 1411 1411 1412 1408 1401 1399 1394 1390 1385 1384 1384 1382 1378 1377 1376 1376 1377 1378 1380 1383 1387 1390 1393 1397 1402 1406 1409 1414 1420 1427 1433 1438 1442 1446 1449 1452 1454 1456 1457 1457
1442 1438 1427 1412 1408 1407 1410 1406 1399 1396 1393 1390 1386 1386 1390 1387 1383 1380 1380 1379 1380 1382 1384 1387 1391 1394 1397 1401 1406 1410 1415 1420 1426 1432 1437 1440 1443 1447 1449 1452 1453 1454 1455 1455
1439 1436 1424 1408 1406 1405 1409 1405 1398 1395 1393 1391 1391 1393 1394 1391 1388 1386 1384 1384 1385 1387 1389 1393 1396 1399 1402 1406 1410 1415 1420 1425 1431 1435 1439 1442 1444 1447 1449 1450 1451 1452 1452 1452
1432 1431 1424 1405 1404 1405 1404 1399 1397 1395 1393 1393 1393 1394 1394 1394 1393 1392 1391 1390 1391 1392 1395 1399 1402 1404 1407 1411 1416 1421 1426 1431 1434 1438 1441 1443 1445 1447 1448 1449 1450 1450 1450 1449
1419 1417 1405 1402 1401 1401 1399 1397 1396 1395 1393 1393 1394 1396 1396 1397 1397 1398 1398 1399 1400 1401 1402 1406 1410 1413 1414 1418 1423 1427 1431 1434 1437 1440 1442 1444 1445 1447 1448 1448 1448 1448 1447 1446
1413 1406 1401 1400 1399 1399 1397 1396 1394 1394 1394 1394 1394 1396 1398 1399 1400 1401 1403 1404 1405 1407 1408 1412 1416 1419 1421 1424 1428 1431 1434 1436 1439 1441 1443 1444 1445 1446 1446 1446 1446 1445 1444 1442
1410 1404 1399 1399 1398 1398 1396 1395 1394 1394 1394 1395 1395 1397 1399 1400 1402 1404 1405 1407 1410 1411 1413 1417 1421 1424 1426 1429 1432 1434 1436 1438 1440 1442 1444 1445 1445 1446 1445 1445 1444 1443 1441 1439
1406 1401 1401 1400 1398 1397 1396 1395 1395 1395 1395 1397 1397 1398 1400 1402 1404 1405 1407 1410 1413 1415 1418 1421 1424 1427 1431 1433 1436 1437 1438 1440 1442 1443 1444 1444 1445 1445 1444 1444 1442 1440 1438 1436
1400 1399 1399 1398 1397 1396 1395 1395 1395 1396 1396 1398 1400 1401 1402 1404 1406 1408 1411 1414 1416 1419 1422 1425 1428 1431 1434 1436 1438 1439 1440 1441 1443 1443 1444 1444 1444 1443 1442 1441 1440 1437 1435 1433
1397 1397 1397 1396 1396 1396 1395 1395 1396 1397 1398 1400 1401 1403 1404 1406 1409 1411 1414 1417 1420 1423 1426 1429 1431 1434 1436 1438 1440 1441 1442 1443 1443 1444 1444 1443 1443 1442 1440 1438 1437 1435 1433 1431
1395 1395 1395 1394 1394 1394 1395 1395 1397 1398 1400 1402 1404 1405 1407 1409 1412 1415 1418 1422 1424 1427 1430 1432 1434 1436 1439 1440 1441 1442 1443 1443 1444 1444 1443 1442 1441 1440 1438 1436 1434 1432 1430 1428
1393 1392 1392 1392 1392 1393 1394 1395 1397 1399 1401 1403 1406 1408 1411 1413 1416 1419 1423 1426 1428 1430 1433 1435 1437 1439 1440 1442 1442 1443 1443 1444 1444 1443 1442 1441 1440 1438 1436 1434 1432 1429 1427 1424
1391 1390 1390 1390 1390 1391 1393 1394 1396 1398 1401 1404 1407 1410 1413 1416 1419 1422 1425 1429 1431 1433 1436 1438 1439 1441 1442 1443 1443 1444 1444 1444 1443 1442 1441 1439 1438 1436 1434 1431 1429 1427 1424 1422
1387 1387 1387 1387 1387 1388 1391 1394 1396 1399 1402 1405 1409 1412 1416 1418 1421 1424 1427 1430 1433 1435 1437 1439 1441 1442 1443 1443 1444 1444 1444 1443 1442 1441 1439 1438 1436 1433 1431 1429 1426 1424 1421 1419
1382 1382 1383 1384 1384 1386 1389 1391 1395 1398 1402 1406 1410 1413 1417 1420 1423 1426 1429 1431 1434 1436 1438 1440 1441 1443 1443 1444 1444 1443 1443 1442 1441 1439 1437 1435 1433 1431 1428 1426 1424 1421 1419 1416
1379 1380 1381 1382 1383 1385 1387 1390 1394 1398 1402 1406 1410 1413 1417 1421 1424 1427 1429 1432 1435 1437 1439 1440 1442 1443 1443 1443 1443 1443 1442 1440 1439 1437 1435 1432 1430 1428 1426 1423 1421 1418 1416 1413
1379 1379 1380 1381 1382 1384 1387 1390 1393 1397 1402 1406 1410 1413 1417 1421 1424 1427 1429 1432 1435 1437 1439 1440 1442 1442 1443 1442 1442 1441 1440 1438 1436 1434 1432 1430 1427 1425 1423 1420 1418 1415 1413 1410
1380 1380 1380 1381 1382 1384 1387 1390 1394 1397 1401 1405 1410 1414 1417 1420 1423 1427 1430 1433 1435 1437 1439 1440 1441 1441 1441 1441 1440 1439 1438 1436 1434 1431 1429 1426 1424 1422 1419 1417 1414 1412 1410 1407
1381 1381 1381 1382 1383 1385 1387 1390 1394 1398 1401 1405 1409 1413 1416 1419 1423 1426 1429 1432 1434 1436 1438 1439 1440 1440 1440 1439 1438 1437 1435 1433 1431 1428 1426 1423 1421 1418 1416 1413 1411 1409 1406 1404
1382 1382 1382 1382 1384 1385 1387 1390 1394 1398 1402 1406 1410 1413 1417 1420 1423 1427 1430 1432 1433 1435 1437 1438 1438 1438 1438 1437 1436 1434 1432 1430 1428 1425 1423 1420 1417 1415 1412 1410 1408 1405 1403 1401
1383 1382 1383 1383 1384 1386 1387 1390 1393 1397 1401 1406 1410 1414 1418 1421 1423 1426 1428 1431 1433 1435 1436 1437 1437 1437 1436 1435 1433 1431 1429 1427 1424 1422 1419 1417 1414 1412 1409 1407 1404 1402 1400 1398
1383 1383 1383 1384 1385 1386 1388 1390 1393 1396 1400 1404 1409 1413 1417 1421 1424 1426 1428 1430 1432 1434 1435 1435 1435 1435 1434 1432 1431 1429 1427 1424 1422 1419 1417 1414 1412 1409 1406 1404 1402 1399 1397 1395
1383 1382 1382 1383 1384 1386 1388 1390 1393 1396 1400 1404 1408 1412 1416 1419 1422 1425 1428 1430 1432 1433 1434 1434 1434 1433 1432 1430 1428 1426 1424 1422 1420 1417 1415 1412 1409 1407 1404 1401 1399 1397 1394 1392